Weather History for Valparaiso, IN

Change the Weather History Date:

Monday, January 14, 2013

  Actual Average Record
Temperature  
Mean Temperature 19 °F 23 °F  
Max Temperature 25 °F 31 °F 47 °F (2002)
Min Temperature 12 °F 16 °F -3 °F (2009)
Degree Days  
Heating Degree Days 46 42  
Month to date heating degree days 509 579  
Since 1 July heating degree days 2694 2981  
Moisture  
Dew Point 12 °F    
Average Humidity 77    
Maximum Humidity 84    
Minimum Humidity 63    
Precipitation  
Precipitation 0.00 in 0.05 in 0.47 in (2007)
Month to date precipitation 0.69 0.75  
Year to date precipitation 0.69 0.75  
Sea Level Pressure  
Sea Level Pressure 30.43 in    
Wind  
Wind Speed 3 mph (WNW)    
Max Wind Speed 14 mph    
Max Gust Speed 17 mph    
Visibility 10 miles    
Events      
T = Trace of Precipitation, MM = Missing Value Source: NWS Daily Summary

Daily Weather History Graph

Daily Weather History Graph

Search for Another Location

Airport:

Trip Planner

Search our weather history database for the weather conditions in past years. The results will help you decide how hot, cold, wet, or windy it might be!

Date:

Astronomy

Jan. 14, 2013 Rise Set
Actual Time 7:12 AM CST 4:42 PM CST
Civil Twilight 6:41 AM CST 5:13 PM CST
Nautical Twilight 6:07 AM CST 5:47 PM CST
Astronomical Twilight 5:34 AM CST 6:20 PM CST
Moon 8:42 AM CST (1/14) 8:30 PM CST (1/14)
Length of Visible Light 10h 31m
Length of Day
9h 30m
Waxing Crescent, 11% of the Moon is Illuminated
Jan 14
Waxing Crescent
Jan 18
First Quarter
Jan 26
Full
Feb 3
Last Quarter
Feb 10
New

Hourly Weather History & Observations

Time (CST) Temp. Windchill Dew Point Humidity Pressure Visibility Wind Dir Wind Speed Gust Speed Precip Events Conditions
12:53 AM 14.0 °F 2.9 °F 8.1 °F 77% 30.29 in 10.0 mi West 8.1 mph - N/A   Clear
1:53 AM 14.0 °F 3.9 °F 8.1 °F 77% 30.33 in 10.0 mi WSW 6.9 mph - N/A   Clear
2:53 AM 12.9 °F 2.6 °F 8.1 °F 81% 30.36 in 10.0 mi WSW 6.9 mph - N/A   Clear
3:53 AM 12.9 °F 1.6 °F 8.1 °F 81% 30.38 in 10.0 mi West 8.1 mph - N/A   Clear
4:53 AM 12.9 °F 3.8 °F 8.1 °F 81% 30.39 in 10.0 mi West 5.8 mph - N/A   Clear
5:53 AM 12.0 °F 0.5 °F 8.1 °F 84% 30.41 in 10.0 mi WNW 8.1 mph - N/A   Clear
6:53 AM 12.0 °F 1.5 °F 7.0 °F 80% 30.44 in 10.0 mi WNW 6.9 mph - N/A   Clear
7:53 AM 12.9 °F 6.9 °F 8.1 °F 81% 30.45 in 10.0 mi NW 3.5 mph - N/A   Clear
8:44 AM 15.8 °F 10.2 °F 8.6 °F 73% 30.42 in 10.0 mi WNW 3.5 mph - N/A   Mostly Cloudy
8:53 AM 16.0 °F 10.4 °F 10.0 °F 77% 30.46 in 10.0 mi NW 3.5 mph - N/A   Scattered Clouds
9:21 AM 17.6 °F 10.7 °F 12.2 °F 79% 30.41 in 10.0 mi NNW 4.6 mph - N/A   Mostly Cloudy
9:53 AM 19.9 °F 12.1 °F 14.0 °F 78% 30.45 in 10.0 mi North 5.8 mph - N/A   Overcast
10:07 AM 21.2 °F 11.7 °F 15.8 °F 80% 30.40 in 10.0 mi North 8.1 mph - N/A   Overcast
10:53 AM 21.0 °F 11.4 °F 15.1 °F 78% 30.44 in 10.0 mi North 8.1 mph - N/A   Overcast
11:53 AM 23.0 °F 17.0 °F 16.0 °F 74% 30.44 in 10.0 mi Variable 4.6 mph - N/A   Overcast
12:53 PM 23.0 °F 15.8 °F 15.1 °F 72% 30.45 in 10.0 mi NNW 5.8 mph - N/A   Mostly Cloudy
1:27 PM 23.0 °F - 15.8 °F 74% 30.42 in 10.0 mi Calm Calm - N/A   Mostly Cloudy
1:53 PM 23.0 °F - 15.1 °F 72% 30.45 in 10.0 mi Calm Calm - N/A   Overcast
2:53 PM 23.0 °F - 15.1 °F 72% 30.48 in 10.0 mi Calm Calm - N/A   Mostly Cloudy
3:48 PM 24.8 °F - 14.0 °F 64% 30.45 in 10.0 mi Calm Calm - N/A   Partly Cloudy
3:53 PM 25.0 °F - 14.0 °F 63% 30.49 in 10.0 mi Calm Calm - N/A   Partly Cloudy
4:53 PM 21.9 °F - 10.9 °F 63% 30.48 in 10.0 mi Calm Calm - N/A   Clear
5:53 PM 19.9 °F - 14.0 °F 78% 30.47 in 10.0 mi Calm Calm - N/A   Clear
6:53 PM 19.0 °F - 14.0 °F 81% 30.48 in 10.0 mi Calm Calm - N/A   Clear
7:53 PM 18.0 °F - 14.0 °F 84% 30.46 in 9.0 mi Calm Calm - N/A   Clear
8:53 PM 16.0 °F - 12.0 °F 84% 30.45 in 8.0 mi Calm Calm - N/A   Clear
9:53 PM 17.1 °F - 12.0 °F 81% 30.44 in 9.0 mi Calm Calm - N/A   Clear
10:53 PM 17.1 °F - 12.0 °F 81% 30.44 in 10.0 mi Calm Calm - N/A   Clear
11:53 PM 16.0 °F - 12.0 °F 84% 30.45 in 10.0 mi Calm Calm - N/A   Clear